GEFSCGP_500_meanwind_258.txt.gz
Wind_Speed
14 14 14 13 13 14 14 14 14 14 14 15 15 15 15 16 17 17 17 17 17 17 18 18 18 19 19 19 18 19 20 21 22 22 23 23 25 25 26 27 28 29 30 31
14 14 13 13 13 14 14 13 13 13 13 14 15 15 14 14 16 16 16 17 17 16 17 17 18 19 19 19 19 19 19 19 20 21 22 23 23 24 26 27 27 30 31 32
13 13 13 14 14 14 14 13 12 12 13 13 13 13 13 12 13 14 16 16 17 17 17 17 17 18 19 19 19 19 19 19 20 20 21 22 22 23 25 27 28 29 29 30
12 13 13 14 14 14 14 13 11 11 11 12 12 13 13 13 13 13 14 16 16 17 18 17 17 18 18 19 19 19 19 18 18 20 21 21 21 23 25 26 27 28 29 29
12 12 12 12 12 12 12 12 11 10 10 11 11 12 12 13 14 13 14 15 16 16 16 16 17 17 17 18 18 18 18 18 19 20 21 21 22 23 24 25 25 27 28 28
12 12 11 10 10 10 10 11 11 11 11 12 11 13 12 13 13 13 14 14 15 16 16 16 16 16 17 18 18 18 19 19 20 21 22 22 23 24 24 25 25 25 26 26
13 12 11 10 11 11 11 11 12 13 13 13 12 13 13 13 13 14 15 16 16 16 16 16 16 17 18 18 18 19 20 20 21 22 23 24 24 25 25 25 24 24 25 27
14 13 13 12 12 13 12 12 13 14 14 14 13 13 13 14 14 15 15 16 17 17 18 18 17 17 18 18 19 20 20 21 22 23 24 24 25 26 26 26 25 26 26 27
16 15 15 14 14 15 14 13 14 15 15 15 15 14 14 15 15 16 17 18 18 18 19 19 18 18 19 19 20 21 21 22 23 24 25 25 25 26 27 26 27 28 28 29
17 17 16 16 16 15 15 15 15 16 16 16 16 15 15 15 17 18 19 19 19 19 19 19 19 19 20 21 22 22 23 23 24 24 25 26 26 27 27 27 29 29 29 29
18 18 18 17 17 17 16 16 17 17 18 19 18 17 17 18 18 19 20 21 20 20 20 20 21 21 21 22 23 22 23 24 24 24 25 26 27 27 28 28 29 29 30 30
19 19 19 19 19 19 19 19 19 19 19 20 20 19 18 19 20 20 22 22 23 22 22 23 22 23 23 23 23 24 24 25 25 26 26 26 28 28 28 29 29 29 30 31
21 20 20 20 21 21 21 21 21 21 21 21 21 19 20 20 21 21 22 23 24 24 24 24 24 24 24 24 24 25 25 26 27 28 28 28 29 29 29 30 30 30 30 30
24 23 23 23 23 23 23 23 23 23 23 23 22 21 21 22 23 23 24 24 25 25 25 25 25 25 25 25 26 26 26 26 27 28 29 29 29 29 30 31 31 30 30 31
26 26 26 26 25 25 25 24 24 25 25 26 24 24 23 24 25 25 25 26 26 26 26 26 26 26 27 27 27 27 27 28 29 29 30 29 30 30 31 32 32 32 32 32
28 28 28 28 28 28 27 26 26 25 26 26 26 25 25 26 28 28 27 27 28 27 27 27 27 28 28 28 28 28 28 28 29 30 30 30 30 31 32 32 32 33 33 33
30 31 31 31 31 31 30 28 28 28 28 28 27 27 27 28 28 28 28 28 28 29 29 29 29 29 30 29 29 29 29 30 30 31 31 31 31 31 32 32 33 34 34 34
33 33 34 34 34 35 31 31 31 31 31 31 30 29 29 29 29 29 29 29 29 29 29 30 30 30 30 30 30 30 31 31 32 32 32 32 31 31 32 32 34 34 35 35
35 35 36 36 37 37 34 33 34 35 34 34 34 33 32 31 31 31 31 31 31 31 31 31 31 31 31 32 32 32 32 33 33 33 33 33 33 33 34 34 35 35 35 36
36 36 37 38 39 39 36 35 36 36 36 35 36 35 34 34 33 33 33 34 33 34 33 33 33 34 33 34 34 34 34 34 34 34 34 34 34 35 35 36 37 37 37 37
38 38 38 39 40 39 37 37 37 38 37 37 37 37 37 36 35 35 35 36 36 35 35 35 35 36 36 35 35 35 35 35 36 36 35 35 36 36 37 38 38 38 38 39
40 40 40 40 41 40 39 39 39 39 40 39 39 39 38 38 37 37 37 38 38 38 37 37 37 37 37 37 37 37 37 37 37 38 38 38 38 38 38 39 39 39 38 38
43 42 42 42 42 41 41 41 42 41 41 40 40 40 40 39 39 39 39 39 39 39 39 39 39 39 39 39 39 39 39 39 39 39 40 40 40 40 39 39 39 38 38 38
45 45 45 45 43 43 43 43 43 43 42 42 43 42 42 42 42 41 40 40 41 41 41 41 41 41 41 41 42 41 41 41 41 41 42 42 42 41 40 39 39 38 38 38
47 46 47 47 45 45 44 45 45 45 45 44 44 44 44 45 44 43 43 43 43 43 43 43 43 43 43 43 43 43 43 43 43 43 43 43 42 41 41 40 40 40 39 39
48 48 50 49 48 48 46 46 47 47 46 46 46 46 46 46 46 46 45 46 46 45 45 45 45 44 44 44 44 44 44 44 44 44 44 44 43 43 42 41 41 41 41 40

GEFSCGP_500_meanwind_264.txt.gz
Wind_Speed
15 16 16 15 16 16 17 18 17 17 17 18 18 19 19 19 19 20 20 20 20 20 20 21 21 20 20 20 21 21 22 22 22 23 23 24 25 26 26 25 25 25 26 26
16 16 15 15 16 16 17 17 17 17 18 18 19 19 18 19 19 19 19 19 19 20 20 21 21 21 21 21 21 22 22 22 22 22 23 24 25 25 25 25 25 26 26 27
17 16 16 16 16 17 17 17 17 17 17 18 19 19 18 18 19 19 18 18 18 19 20 21 21 22 21 21 21 22 22 21 21 22 22 23 24 25 25 26 26 27 27 28
18 17 16 15 15 16 16 16 17 17 18 18 19 19 17 17 17 18 17 18 18 18 19 20 20 21 21 21 21 21 21 21 22 22 22 23 23 24 25 26 27 28 28 28
18 17 16 16 16 16 16 16 17 17 17 18 18 20 18 17 17 17 17 17 18 18 19 19 20 20 20 20 21 21 21 21 22 23 23 23 22 23 24 26 27 27 27 27
19 18 18 17 17 16 17 17 17 17 17 17 17 18 17 17 17 17 18 18 19 19 19 20 20 20 20 20 20 21 22 22 23 23 23 23 23 23 24 24 25 25 26 27
19 19 19 18 18 18 18 18 18 18 18 17 16 17 17 17 17 18 17 18 18 18 18 19 19 19 20 20 21 21 22 23 23 24 23 24 24 24 24 24 25 26 27 27
21 20 20 19 18 18 18 19 19 19 19 17 17 17 17 18 18 19 18 18 17 18 18 19 20 20 20 21 22 22 22 23 24 24 24 25 25 25 25 25 26 26 27 27
22 21 20 20 19 19 19 19 19 20 19 19 18 17 16 17 18 19 20 19 19 19 19 20 21 21 22 22 23 23 23 24 24 24 25 25 25 25 26 27 27 28 28 28
23 23 21 21 21 20 20 19 19 20 21 21 20 19 18 18 18 19 20 21 21 21 21 21 22 22 22 23 24 24 24 24 24 24 25 25 26 27 28 29 29 30 30 31
23 24 23 23 23 22 21 21 21 22 23 23 22 20 19 19 19 20 21 21 21 21 21 22 22 23 23 24 25 25 25 25 25 25 26 26 27 28 30 30 31 32 31 32
24 24 24 24 24 24 23 22 22 23 23 23 24 21 21 21 21 21 21 21 21 22 22 22 23 24 25 26 26 26 26 26 27 27 28 28 29 30 31 32 33 33 33 34
26 26 25 25 25 25 25 24 24 25 25 25 24 23 22 23 23 23 23 22 22 23 24 24 25 25 26 26 27 27 27 28 28 28 29 30 31 32 32 33 34 34 34 35
28 28 28 27 27 27 26 25 26 27 27 27 26 25 23 24 25 25 25 25 25 25 25 26 26 27 27 28 28 28 29 29 30 30 30 31 32 33 33 33 34 34 34 35
30 30 31 30 29 29 28 28 28 28 28 28 26 26 25 25 26 26 26 26 26 26 26 27 27 27 28 28 28 29 29 30 31 32 32 33 33 33 33 34 34 34 34 34
31 32 32 32 31 31 31 31 30 30 29 29 28 27 27 28 28 28 28 27 28 28 28 28 28 28 29 29 29 30 30 31 31 32 33 34 34 34 34 34 35 35 34 35
33 34 34 34 33 34 34 31 31 31 30 31 31 29 29 30 30 30 30 30 30 30 29 29 29 30 30 30 30 31 32 32 32 33 33 34 35 35 36 36 36 36 36 36
34 35 36 37 36 37 34 33 33 33 33 33 34 32 32 32 32 32 31 32 32 32 31 31 31 31 31 31 32 32 33 33 33 33 34 35 36 36 36 36 36 36 37 37
36 36 37 38 39 39 37 36 36 37 36 35 35 35 35 35 35 33 33 33 33 33 33 33 33 33 33 33 34 34 34 35 35 35 35 36 36 37 37 37 37 37 38 39
38 38 39 40 41 42 39 39 39 40 40 38 38 38 37 37 37 36 35 35 35 34 34 35 35 35 35 35 35 35 36 36 37 37 37 37 37 38 39 39 39 39 40 40
39 40 40 41 42 42 41 41 41 41 41 40 40 40 40 40 39 38 38 37 37 37 36 36 36 37 37 37 37 38 38 38 38 38 39 39 39 39 39 40 40 40 41 41
41 42 42 42 42 41 41 41 41 42 42 42 42 42 41 41 40 40 40 40 40 39 39 38 38 39 39 39 40 40 40 40 40 40 40 40 41 41 41 42 41 41 41 42
43 43 43 43 43 42 42 41 42 42 43 43 43 43 43 43 42 42 42 42 42 42 42 42 42 42 42 42 42 42 43 43 43 43 43 43 44 44 43 43 43 43 42 42
45 45 45 45 44 43 44 44 44 44 45 45 45 45 45 44 44 44 45 45 45 45 45 45 45 44 45 45 45 45 45 46 45 45 45 45 45 45 44 44 44 44 44 44
47 47 48 48 46 47 47 47 47 47 47 47 47 46 46 46 46 46 46 47 47 47 48 47 47 47 47 47 47 47 47 47 47 47 47 46 45 45 45 45 45 45 45 45
46 47 48 48 47 48 49 50 50 50 50 50 49 49 49 49 49 49 49 49 50 49 49 49 49 49 48 48 48 48 48 49 49 48 48 47 46 47 47 46 46 45 46 46

GEFSCGP_500_meanwind_270.txt.gz
Wind_Speed
17 17 17 18 18 19 19 20 20 19 19 19 19 20 20 19 20 20 21 21 20 20 20 21 21 21 22 23 22 22 22 22 22 23 23 23 23 23 23 24 24 24 25 25
18 18 18 18 18 18 18 19 18 18 19 19 19 20 19 19 19 20 20 20 20 20 20 21 22 22 22 22 23 22 22 22 22 23 22 22 22 23 23 23 24 24 24 24
20 19 18 18 18 18 17 18 17 18 18 18 19 19 19 19 19 20 20 20 20 20 21 22 21 21 22 22 22 22 22 22 22 22 23 23 22 22 23 23 23 23 24 25
20 19 18 18 18 18 17 17 18 18 18 18 18 18 17 19 19 20 20 20 20 21 21 21 21 21 21 21 21 22 21 21 21 22 23 23 22 22 23 23 23 23 24 26
19 19 19 19 19 19 19 19 19 19 19 18 18 19 16 17 18 19 20 20 20 20 20 20 20 21 21 21 21 21 21 21 21 21 22 22 22 22 22 23 23 24 25 25
19 19 19 19 19 20 20 20 20 19 19 20 18 19 18 17 17 18 19 20 20 20 20 20 20 20 20 21 21 21 21 21 21 21 22 22 22 23 23 23 24 25 25 26
19 18 18 19 19 19 20 20 20 20 20 20 19 20 18 18 18 18 19 19 20 19 20 20 20 20 21 22 21 21 21 21 21 22 22 22 23 24 24 24 26 25 25 26
20 19 19 20 20 20 20 20 21 22 22 21 20 20 19 20 19 18 18 18 18 18 18 19 19 20 20 21 21 21 21 22 22 23 23 23 24 25 25 26 27 27 27 27
21 20 19 20 20 21 21 21 22 22 23 22 21 20 20 20 19 18 18 18 18 18 18 18 19 19 20 21 21 22 22 22 23 23 23 24 25 26 26 27 28 28 28 28
21 21 21 21 21 21 22 22 23 23 24 24 22 20 20 19 19 18 18 19 18 19 19 19 20 20 21 21 22 23 23 23 23 24 24 25 26 27 28 28 29 29 29 29
22 23 22 22 22 22 22 23 23 24 25 25 24 21 21 21 21 20 19 19 19 20 20 20 21 21 21 22 22 23 25 25 25 25 26 26 27 28 28 29 30 31 31 31
24 24 24 23 24 24 24 24 24 24 25 25 25 22 22 22 22 21 21 20 20 20 21 21 22 22 22 23 23 24 25 26 27 27 27 27 28 29 29 30 31 31 32 32
26 27 26 26 25 25 25 25 25 26 26 26 26 23 22 23 23 23 23 22 21 21 22 22 22 23 24 24 25 25 26 26 27 27 28 28 29 30 30 31 31 31 32 33
28 29 29 28 27 27 27 27 27 27 28 28 26 25 25 25 25 25 25 24 24 24 24 24 25 25 25 26 26 26 27 28 28 28 29 30 31 30 30 31 32 33 33 34
31 31 31 31 31 30 30 29 29 30 29 29 27 27 26 26 26 26 26 26 26 26 26 26 26 27 27 28 28 28 28 28 29 30 30 30 31 31 31 32 33 34 34 35
32 33 33 33 33 33 33 31 31 32 32 31 30 29 27 27 27 27 27 27 28 28 28 28 28 28 29 29 30 31 31 31 31 31 32 32 32 32 32 32 33 34 35 36
34 34 34 35 34 35 35 32 32 33 33 33 33 31 30 30 29 29 29 29 29 30 30 31 30 30 30 31 31 32 32 32 31 32 32 33 33 34 34 34 35 35 36 37
35 35 36 36 36 38 34 33 33 33 33 34 34 32 33 33 33 32 32 32 31 31 31 32 32 32 32 33 33 33 33 33 33 33 33 34 34 35 36 37 37 38 38 38
36 36 37 37 38 39 36 34 35 35 35 34 35 34 34 35 35 34 34 34 33 33 33 33 33 33 34 34 34 35 35 35 35 35 35 36 36 37 37 38 39 40 40 41
37 37 38 38 39 39 36 35 36 38 39 37 37 36 36 36 36 35 36 35 35 35 35 35 35 35 35 35 35 36 36 36 36 37 37 38 38 38 39 39 40 41 41 42
38 38 39 39 39 39 36 36 37 38 38 38 38 38 38 38 38 37 37 37 37 37 36 36 37 37 37 37 37 37 37 38 38 38 39 39 39 40 41 41 41 41 42 43
39 40 40 40 41 39 37 37 38 38 38 38 38 39 39 40 40 40 39 39 39 39 38 38 38 38 39 39 39 39 39 40 40 40 41 41 41 41 42 43 43 43 43 44
41 41 42 42 42 40 40 40 40 40 39 39 39 39 40 41 41 41 41 41 41 41 41 40 40 40 40 40 41 42 43 43 43 43 43 43 43 43 44 45 45 45 45 45
43 43 44 43 41 41 41 42 42 42 42 42 42 41 42 42 42 42 42 42 42 43 43 43 43 43 42 43 44 45 45 45 45 45 44 45 45 45 46 47 47 47 46 46
45 44 44 44 42 43 43 44 44 44 44 43 43 43 44 44 44 44 44 44 44 45 46 46 46 46 45 45 45 46 47 47 46 45 46 47 47 47 48 48 48 47 47 47
44 44 44 44 43 45 44 45 45 45 45 45 46 46 46 46 46 46 46 47 47 47 47 48 49 48 48 48 48 48 48 48 47 47 48 48 49 49 49 48 47 47 47 47

GEFSCGP_500_meanwind_276.txt.gz
Wind_Speed
22 23 22 22 23 24 23 23 22 21 22 22 22 22 23 22 23 24 24 25 25 25 26 26 26 26 26 26 26 26 27 27 27 27 27 27 27 28 28 27 27 27 27 26
23 23 22 23 23 23 22 22 22 22 22 22 22 22 22 23 23 24 24 25 26 26 26 26 26 27 26 26 27 28 28 28 28 28 27 27 27 27 27 27 27 27 26 26
23 23 22 22 22 23 22 22 22 22 22 23 23 21 21 21 23 23 24 25 25 26 26 26 27 27 28 28 28 29 29 29 29 29 29 28 27 27 27 27 27 27 27 26
23 22 22 22 23 23 23 23 23 22 22 22 23 22 20 20 22 23 23 24 24 25 26 26 27 28 28 29 29 29 29 29 29 29 29 28 28 27 27 26 27 26 26 27
23 22 23 23 22 23 23 23 23 23 22 22 22 23 20 20 21 22 23 23 23 24 24 25 26 27 27 27 28 28 28 28 28 29 29 28 27 27 27 26 26 27 27 27
23 23 23 23 23 23 23 24 24 24 24 23 22 24 23 21 21 22 22 23 23 24 24 24 25 26 26 26 27 26 26 27 27 27 27 27 28 27 27 26 26 27 27 27
23 23 23 23 23 24 23 24 25 25 25 25 23 24 25 24 23 23 23 23 24 24 24 25 25 25 26 26 26 26 26 26 26 26 27 27 27 28 27 27 27 27 27 28
23 24 24 24 24 24 24 25 26 27 27 26 25 25 24 24 24 24 23 23 24 24 25 25 25 25 25 25 25 25 25 25 25 25 26 27 27 27 27 27 27 28 28 29
24 25 24 25 25 25 26 25 26 27 28 28 27 26 25 25 25 25 24 24 24 24 25 25 25 25 24 24 24 24 24 24 25 26 26 26 27 27 27 28 28 29 29 29
26 26 26 25 26 26 26 26 26 27 29 30 29 27 27 25 26 25 25 24 24 24 24 24 25 25 24 24 24 24 25 25 26 26 26 27 27 28 28 28 28 29 29 30
28 28 27 27 27 26 26 27 28 29 30 31 31 29 27 26 27 27 26 25 25 24 25 25 25 24 24 24 24 24 25 25 27 27 28 28 28 28 28 28 28 29 30 31
29 30 29 28 28 28 28 28 28 29 29 31 32 31 29 28 28 28 27 27 26 26 26 26 26 25 25 25 25 25 26 26 27 28 28 28 29 28 28 29 29 29 30 31
31 32 31 31 30 30 30 29 29 30 31 32 33 31 29 29 29 29 29 28 27 27 27 27 27 27 27 27 27 27 28 28 28 29 30 30 30 30 30 30 30 31 32 32
33 33 33 33 32 32 32 31 31 32 33 33 32 31 30 30 30 30 30 30 29 28 29 28 28 28 29 29 28 29 30 30 30 30 30 30 31 31 31 32 32 32 33 33
34 34 34 34 34 34 34 34 34 34 35 35 33 32 31 31 31 31 31 30 30 30 30 30 30 30 30 30 30 30 30 31 31 31 32 32 32 33 34 34 34 34 34 35
36 37 37 37 36 37 37 36 36 36 36 36 36 34 32 33 33 33 33 33 32 32 32 32 32 32 32 32 33 32 32 32 33 33 34 34 34 35 35 36 36 37 37 38
38 38 39 38 38 40 40 37 37 37 37 37 37 35 34 34 34 34 35 34 34 34 34 33 33 33 34 35 35 35 35 34 34 35 35 36 36 37 37 38 38 39 40 40
40 40 41 41 41 43 39 38 37 37 37 37 37 37 36 36 36 36 36 35 35 35 35 35 35 35 35 35 36 36 36 36 36 36 37 38 38 39 39 40 40 41 41 41
41 41 42 42 43 43 40 39 39 39 38 37 38 38 37 38 38 37 37 37 37 36 36 36 37 37 37 37 37 37 37 37 38 38 38 38 39 40 41 41 42 42 42 42
41 41 42 43 44 44 40 40 40 42 41 39 40 40 39 40 40 38 38 38 38 38 38 38 38 38 38 38 38 38 39 39 40 40 40 40 40 41 41 42 42 42 43 43
42 42 43 44 45 44 42 42 43 44 43 42 42 42 41 42 42 41 40 40 39 39 40 40 40 40 40 40 40 40 40 40 40 41 41 42 42 43 43 44 44 43 43 44
43 44 44 44 45 44 42 43 43 44 43 44 44 44 44 44 44 43 42 42 41 41 41 42 42 41 42 42 42 41 41 42 42 42 42 43 44 44 44 45 45 45 45 46
44 44 45 47 45 44 44 44 44 44 44 44 44 45 45 45 45 45 44 44 43 43 43 43 43 43 44 44 44 44 44 44 44 44 44 45 45 45 46 46 46 46 47 48
44 45 46 47 45 45 45 44 45 45 45 45 45 45 45 45 45 45 45 45 45 45 45 45 45 45 46 46 47 47 47 47 47 47 47 46 46 47 47 48 48 48 49 49
46 47 47 47 45 45 45 44 45 46 45 46 46 46 47 46 46 46 46 46 47 47 47 48 48 48 48 49 49 49 49 49 49 49 48 48 48 48 48 49 49 50 50 49
47 48 48 48 46 47 46 46 47 47 47 48 48 48 49 48 47 47 47 48 48 48 48 49 49 50 50 50 50 50 50 50 50 50 50 50 51 51 50 50 51 51 51 50

GEFSCGP_500_meanwind_282.txt.gz
Wind_Speed
24 24 24 24 24 25 24 24 24 24 24 24 24 24 24 25 25 25 26 26 26 27 27 28 28 28 28 28 28 27 27 27 28 28 28 28 29 30 31 30 29 29 29 29
25 25 24 24 24 24 25 25 24 24 24 24 23 23 23 23 23 24 25 25 25 25 26 27 27 27 28 29 29 28 28 28 28 28 29 29 29 30 31 30 29 29 29 29
25 25 24 24 24 24 24 24 24 24 24 23 22 22 22 22 23 23 23 24 25 25 25 25 26 27 28 29 29 28 28 28 28 29 29 29 29 29 29 30 29 29 29 29
24 24 24 24 23 23 23 23 24 24 25 24 23 22 21 22 22 22 22 23 24 25 25 25 25 26 26 27 28 28 28 28 28 29 30 30 29 29 30 30 30 29 29 29
24 23 24 24 23 23 23 23 24 24 25 25 24 24 21 22 22 22 22 23 23 24 24 25 25 25 26 27 27 28 28 29 28 29 29 30 30 30 30 30 30 30 30 30
24 24 24 24 24 23 23 23 24 25 26 26 24 24 23 22 22 22 22 23 23 24 24 24 24 25 25 25 26 27 28 29 29 28 28 29 29 29 30 30 30 30 30 30
24 24 23 24 24 23 23 24 25 26 26 26 25 25 24 22 22 22 22 23 24 24 25 25 25 25 25 26 26 27 28 28 28 29 29 29 30 29 30 30 30 30 30 30
24 24 23 23 24 24 24 25 25 26 26 26 26 26 25 24 23 23 23 23 24 25 26 26 25 26 26 27 27 28 28 28 29 30 30 30 30 30 30 29 29 30 31 30
24 25 24 24 24 24 25 25 25 27 27 27 28 27 26 25 24 24 24 24 24 25 26 25 25 26 27 27 28 28 28 28 29 29 30 30 30 29 29 29 29 30 30 31
26 26 26 26 26 25 26 25 26 27 28 29 29 28 27 25 25 25 25 25 25 25 26 26 25 25 26 27 27 28 28 28 28 28 29 29 29 29 30 30 30 30 30 30
27 28 27 28 28 27 27 26 27 28 29 30 29 28 27 27 26 26 26 26 26 27 27 27 27 27 27 27 27 28 28 28 29 29 29 29 29 29 29 30 30 31 31 32
29 29 29 29 29 29 29 29 28 28 29 30 30 29 27 27 27 27 28 28 28 28 28 27 28 28 28 28 28 29 29 29 29 29 29 29 29 30 30 30 31 32 32 32
30 30 30 30 31 31 31 31 31 31 31 31 31 29 28 28 29 29 30 30 30 29 29 29 29 29 29 28 29 29 30 30 30 29 30 30 30 30 31 31 32 32 32 33
31 32 32 32 32 32 32 32 32 33 33 33 32 31 30 30 31 31 31 31 31 31 31 30 30 30 30 30 30 30 30 30 30 30 31 30 30 31 32 33 33 33 34 34
33 34 34 34 34 35 34 33 33 34 34 35 33 33 32 32 32 32 32 32 32 32 32 31 30 31 32 32 32 32 32 31 31 32 32 33 33 33 33 34 34 34 36 36
35 36 36 37 37 38 38 36 35 34 35 35 35 34 32 32 33 33 33 33 33 34 33 33 33 33 33 34 34 34 34 34 34 34 34 35 35 34 35 35 35 36 36 37
37 38 38 39 39 41 41 38 37 36 36 37 37 35 35 35 34 35 35 35 35 36 36 36 36 35 35 35 36 36 36 36 36 36 36 36 36 37 37 37 37 38 38 38
39 39 39 40 41 43 40 39 39 39 38 38 38 38 38 37 37 37 37 37 37 37 37 38 38 38 38 37 38 38 38 38 38 38 38 38 38 38 38 39 40 40 41 41
41 41 41 42 43 44 41 40 40 41 41 40 40 40 40 39 40 39 38 38 38 39 39 39 39 40 40 40 40 40 40 40 40 40 40 40 40 40 40 40 41 41 42 42
43 43 43 44 44 44 42 41 42 43 44 42 41 41 41 41 41 40 40 40 40 40 40 40 40 40 40 40 40 41 41 42 42 42 42 42 42 42 42 42 42 43 43 43
43 43 44 45 45 44 42 42 42 43 42 43 43 43 42 43 43 42 42 42 41 41 41 41 41 41 41 41 41 41 41 42 42 43 43 43 44 44 44 44 44 44 44 44
44 44 45 45 45 43 41 42 42 42 43 43 43 43 44 43 43 43 43 44 44 44 43 43 42 42 42 42 42 42 42 43 43 44 44 44 45 45 46 46 46 46 46 46
44 44 44 45 44 43 42 42 42 43 43 44 44 45 45 45 44 44 45 45 45 45 45 45 44 44 44 44 43 43 43 44 44 45 45 46 46 46 47 47 47 47 47 47
44 44 45 45 44 43 43 44 45 45 45 45 45 45 46 46 46 46 46 46 46 46 46 46 46 46 45 45 45 45 45 45 45 45 45 45 46 46 47 48 48 48 48 48
44 45 45 45 43 43 44 44 46 47 47 47 47 47 46 47 47 46 47 47 47 48 48 48 48 47 47 47 47 46 46 46 46 46 46 46 47 47 48 48 48 49 50 50
44 44 44 44 44 45 45 46 47 48 48 48 48 48 48 48 48 47 47 47 48 48 48 48 48 48 49 48 48 48 47 47 47 47 47 47 48 48 48 48 48 49 50 50

GEFSCGP_500_meanwind_288.txt.gz
Wind_Speed
27 28 27 27 27 26 26 26 26 26 26 26 26 25 25 26 26 26 26 26 27 28 29 30 30 29 30 30 30 30 29 29 29 29 30 30 29 29 29 30 29 29 30 30
27 28 28 28 28 28 27 27 27 27 27 27 26 25 25 25 25 25 25 26 27 27 28 28 29 30 30 30 31 31 30 30 29 29 30 30 30 30 29 29 29 30 30 30
28 28 28 29 29 29 29 28 28 28 28 29 28 26 26 26 26 26 26 26 27 27 28 28 28 28 29 29 29 30 30 30 30 30 30 30 30 30 30 30 30 30 30 30
28 28 28 28 29 30 30 29 29 29 29 29 28 28 26 27 27 27 26 25 26 26 27 27 27 28 28 28 28 29 30 30 30 31 31 31 30 30 30 31 30 31 30 31
27 28 28 29 29 30 30 29 30 30 29 29 28 29 27 27 26 26 26 25 26 25 25 26 26 27 28 27 28 28 29 29 30 30 31 31 31 31 31 31 31 31 31 31
27 28 29 29 29 29 30 30 30 31 31 31 28 30 28 27 26 26 25 25 25 25 25 26 26 26 27 27 28 28 29 29 29 30 30 31 32 32 32 32 32 32 32 32
27 28 28 29 29 29 29 30 31 32 32 31 29 30 29 28 26 26 25 25 26 26 26 26 26 26 26 27 28 29 29 30 31 31 31 31 32 32 32 33 32 32 32 32
27 27 27 28 28 29 29 30 31 32 31 31 30 31 29 28 27 27 26 26 26 26 26 26 26 26 26 27 28 29 30 30 31 32 32 33 33 32 32 33 33 33 32 32
27 28 28 28 28 29 29 29 29 31 31 31 30 30 30 28 28 28 27 27 26 26 27 27 27 27 27 27 28 29 30 31 32 32 33 34 34 33 33 32 33 33 33 33
28 29 29 29 29 29 29 29 29 30 31 31 30 29 28 27 28 29 28 28 27 27 27 28 28 28 29 29 29 30 31 31 32 33 33 34 34 34 34 34 33 33 34 34
29 29 28 28 29 29 29 29 30 31 32 32 30 28 28 28 28 28 28 28 28 27 28 29 30 30 30 30 30 31 31 32 32 32 33 34 34 34 34 35 34 34 35 35
29 30 30 29 30 30 31 31 32 33 33 33 32 29 28 29 29 29 28 28 29 29 29 30 30 31 31 31 32 32 32 32 32 33 33 33 34 34 34 35 35 35 36 36
31 32 31 31 31 31 32 32 33 34 35 35 34 32 30 29 30 30 30 30 30 31 31 31 31 31 32 32 32 32 33 33 34 34 34 34 34 35 35 36 36 36 37 37
33 33 33 33 32 33 33 33 34 35 36 37 36 34 32 33 33 32 32 32 32 31 32 32 33 33 34 34 34 33 33 34 34 34 35 35 35 35 36 36 37 38 38 38
35 35 34 34 35 35 35 35 35 36 37 38 37 36 34 34 34 34 35 34 34 34 34 34 34 35 35 35 35 35 35 35 35 35 36 36 36 36 36 37 37 38 39 39
38 38 37 36 36 37 37 36 37 37 38 39 39 38 37 38 37 37 36 36 37 36 36 36 36 36 36 36 37 37 37 37 37 37 37 37 37 37 37 37 38 38 39 39
40 40 40 40 39 40 40 37 37 38 38 38 39 38 38 39 39 39 38 38 38 37 37 37 37 37 37 38 38 38 39 39 39 39 39 39 38 38 38 38 39 39 40 40
40 40 41 42 43 44 41 40 40 40 39 39 40 40 40 40 41 41 41 40 39 39 39 39 38 38 39 39 40 40 40 40 40 40 40 40 40 41 41 40 41 41 41 41
41 41 43 43 45 45 43 41 42 43 42 41 42 42 42 42 43 43 43 43 43 42 42 42 41 41 41 41 41 42 42 42 42 42 42 42 42 43 43 43 42 43 43 43
42 42 44 45 46 46 43 42 43 44 45 43 44 44 44 44 45 44 44 45 45 45 45 44 44 44 43 43 43 43 43 43 44 44 44 44 44 44 44 44 45 45 45 45
42 42 44 45 46 47 44 43 43 44 43 44 44 44 44 45 45 45 46 46 46 47 47 47 46 46 45 45 46 46 46 46 45 45 45 45 45 45 46 46 46 46 46 46
44 43 43 43 45 44 43 43 44 44 45 45 45 45 45 46 46 46 46 46 47 48 48 48 48 48 48 47 47 46 47 47 46 46 46 46 46 46 47 47 47 47 47 48
45 44 44 44 44 44 44 43 43 44 44 45 46 46 47 47 47 47 47 47 47 48 48 48 49 48 48 48 48 47 47 47 47 47 47 47 47 47 47 48 48 48 48 49
46 46 46 45 44 43 43 43 44 45 45 46 46 47 48 48 48 48 48 48 48 47 47 48 48 49 49 49 48 48 48 48 48 48 48 47 47 48 48 48 48 49 49 50
46 46 47 47 45 44 43 43 44 45 46 46 46 47 47 48 48 49 49 50 50 49 49 49 49 49 49 49 49 49 49 49 48 48 49 48 49 49 49 49 49 50 50 50
46 47 48 47 46 46 44 45 45 46 47 47 47 47 47 48 48 49 49 49 49 49 49 50 50 50 50 50 50 50 50 50 50 50 50 50 50 50 50 50 50 50 51 51